Tracking 19245 objects as of 14-Aug-2018
HD Live streaming from Space Station
objects crossing your sky now

GEOSAT

Track GEOSAT now!
10-day predictions
GEOSAT is classified as:


NORAD ID: 15595
Int'l Code: 1985-021A
Perigee: 770.6 km
Apogee: 773.3 km
Inclination: 108.0 °
Period: 100.1 minutes
Semi major axis: 7142 km
RCS: 9.5926 m2 (large)
Launch date: March 13, 1985
Source: United States (US)
Launch site: AIR FORCE WESTERN TEST RANGE (AFWTR)
aabbcc
Your satellite tracking list
Your tracking list is empty




NASA's NSSDC Master Catalog

Two Line Element Set (TLE):
1 15595U 85021A   18224.90798668 -.00000096 +00000-0 +12855-4 0  9992
2 15595 108.0367 250.5329 0001886 288.8996 136.8190 14.38081920750748
Source of the keplerian elements: AFSPC